Wind_Speed
26 26 25 24 23 24 25 26 27 27 28 27 27 27 28 28 28 28 28 28 27 27 27 27 28 28 28 28 29 29 29 29 29 29 29 28 28 28 28 27 27 27 27 27 28 28 28 28 28 29 29 29 29 29 29 29 29 29 29 30 30 30 31 31 31 32 32 32 33 33 33 33 34 34 35 36 37 38 40 42 44 46 48 49 49 49
28 28 28 28 27 27 27 28 28 28 28 28 28 29 29 29 29 29 28 28 27 27 27 27 26 26 26 27 28 29 29 29 29 29 28 28 28 28 28 27 27 27 27 27 27 27 28 28 28 28 28 28 28 28 28 28 28 28 29 29 29 29 30 30 31 31 32 32 33 33 34 34 34 34 35 35 36 37 38 40 42 44 46 48 49 50
28 29 30 30 30 30 29 29 28 28 28 29 29 30 30 29 29 28 28 28 28 28 27 27 26 25 25 26 27 28 29 29 29 29 28 28 28 28 27 27 27 26 26 26 27 27 27 28 28 28 28 28 28 27 27 28 28 28 28 28 29 29 29 30 30 31 31 32 33 33 34 34 35 35 35 36 36 37 37 38 40 42 44 46 48 50
30 30 31 31 31 31 30 29 29 28 28 29 30 31 31 30 29 28 28 28 28 28 28 27 26 25 25 25 26 27 29 29 29 29 29 28 28 28 27 27 27 26 26 26 27 27 27 27 28 28 28 27 27 27 27 27 28 28 28 28 28 29 29 29 30 30 31 31 32 33 34 34 35 35 36 36 37 37 38 38 39 40 42 44 46 48
31 31 32 32 32 31 31 30 30 29 29 30 31 32 33 32 31 29 28 28 29 29 29 28 26 25 25 25 25 27 28 29 29 29 29 29 28 28 27 27 27 26 26 27 27 27 27 27 28 27 27 27 27 27 27 28 28 28 28 29 29 29 29 29 30 30 30 31 31 32 33 34 34 35 36 36 37 37 38 38 39 40 41 42 44 46
32 32 32 32 32 32 32 31 31 30 29 30 32 34 34 34 32 31 30 29 30 30 30 29 27 26 25 25 26 27 28 29 29 30 29 29 28 27 27 27 27 27 27 27 27 28 28 28 28 28 28 28 28 28 28 28 28 29 29 30 30 30 30 30 30 30 31 31 31 32 32 33 34 34 35 36 37 38 38 39 39 40 41 41 43 44
32 32 32 32 33 33 32 32 32 31 30 31 33 35 35 35 34 32 31 31 31 31 31 30 28 27 26 26 26 27 28 29 29 30 29 29 28 27 27 28 28 28 28 28 28 28 28 28 28 28 28 28 28 28 28 29 29 30 30 30 31 31 31 31 31 31 31 32 32 32 32 33 33 34 35 35 36 37 38 39 40 40 41 42 42 44
33 33 33 33 33 33 33 33 32 32 32 33 35 36 37 37 35 33 32 32 32 32 32 31 30 28 27 27 27 27 28 28 29 29 29 28 28 28 28 29 29 29 29 28 28 28 29 29 29 29 29 29 29 29 29 29 30 31 31 31 32 32 32 32 32 32 32 33 33 33 33 33 33 34 34 35 36 36 37 38 39 40 41 42 43 44
34 34 34 34 34 34 34 34 33 33 34 35 37 38 39 38 36 35 33 33 34 34 34 33 32 30 29 27 27 27 27 27 28 28 29 29 28 29 29 30 30 30 29 29 29 29 29 30 30 30 29 29 29 29 30 30 31 31 32 32 32 33 33 33 33 34 34 34 34 34 34 34 34 34 34 35 35 36 37 38 39 40 41 42 43 44
35 35 35 35 35 35 35 35 35 35 35 37 38 39 39 38 37 36 35 35 35 35 35 35 34 32 30 28 27 26 26 27 27 28 29 29 29 29 30 30 30 30 30 30 30 30 30 30 30 30 30 30 30 30 31 31 32 32 33 33 33 34 34 34 35 35 35 35 36 36 36 35 35 35 35 35 35 36 36 37 38 39 40 42 43 44
35 35 35 36 36 36 36 36 36 35 35 36 38 39 39 38 38 37 37 36 36 36 37 37 36 34 32 30 28 26 26 27 28 29 29 30 30 30 30 30 30 30 30 30 30 30 30 31 31 31 31 31 31 32 32 32 33 33 33 34 34 34 35 35 36 36 36 37 37 37 37 37 37 37 36 36 36 36 36 37 37 38 40 41 42 44
36 36 36 37 37 37 37 37 36 35 34 36 37 39 39 39 39 39 38 38 37 37 37 37 36 35 33 31 29 28 27 27 28 29 29 30 30 30 30 31 30 30 30 30 30 30 31 31 32 32 32 32 33 33 33 33 34 34 34 34 35 35 35 36 36 37 38 38 38 39 39 39 39 39 38 38 37 37 37 37 37 38 39 40 41 43
36 36 37 37 37 38 38 37 36 34 34 35 37 39 41 42 41 40 39 38 37 37 36 37 37 36 33 31 30 29 28 28 29 30 30 30 30 30 30 30 30 30 29 29 29 30 31 32 33 33 33 34 34 34 34 34 34 34 35 35 35 36 36 37 37 38 39 39 40 40 40 40 40 40 40 40 39 39 38 38 38 38 39 39 40 42
36 37 37 37 37 38 39 38 37 36 36 37 39 41 42 43 43 41 39 38 36 35 35 37 38 38 35 32 31 30 30 30 30 30 30 29 29 29 29 29 29 29 29 29 29 30 31 32 33 33 34 34 34 34 35 35 35 35 35 35 36 36 37 37 38 39 39 40 40 41 41 42 42 42 42 41 41 41 40 40 39 39 39 39 40 41
37 37 37 37 38 38 39 38 38 38 39 40 41 42 43 44 43 42 39 36 35 34 35 38 40 40 38 34 32 31 31 31 31 30 30 29 28 29 29 29 29 29 28 29 29 30 31 32 32 33 34 34 34 35 35 35 35 35 35 36 36 36 37 37 38 39 39 40 41 42 42 42 43 43 43 43 43 42 42 41 41 40 40 40 40 41
37 37 37 38 38 38 39 40 40 41 42 42 42 42 43 44 43 41 38 35 33 35 37 40 42 42 39 36 33 31 31 31 31 31 30 28 28 28 28 28 29 29 29 29 29 30 30 31 32 32 33 33 34 34 35 35 35 35 35 35 36 36 36 36 37 38 39 40 41 41 42 43 43 43 44 44 44 44 43 43 42 42 41 41 41 41
38 38 38 39 39 39 40 41 42 43 43 43 43 43 43 43 42 40 36 34 34 36 39 42 43 43 40 36 33 31 31 31 31 31 30 28 27 27 28 28 29 29 29 29 29 29 30 30 31 31 32 32 33 33 34 34 35 35 35 35 35 35 36 36 36 37 38 39 40 41 42 43 43 44 44 44 44 44 44 44 44 43 42 42 42 42
38 38 39 39 39 40 41 42 43 43 44 43 43 43 43 43 42 39 36 35 36 38 41 43 43 41 39 36 32 30 30 31 31 31 30 29 28 28 28 29 29 30 30 29 29 29 30 30 30 31 31 32 32 33 33 34 34 34 35 35 35 35 35 35 36 36 37 38 39 40 41 42 43 44 44 44 45 45 45 45 45 44 44 43 43 42
38 38 38 38 39 40 41 42 42 42 42 42 43 42 42 41 40 38 36 36 38 40 42 42 41 39 36 35 33 31 30 30 31 31 31 30 29 28 28 29 30 30 30 30 29 29 29 30 30 30 31 31 31 32 32 33 33 34 34 34 35 35 35 35 35 36 36 37 38 39 40 41 42 43 44 44 45 45 45 45 45 45 45 44 44 43
37 37 37 38 38 39 40 41 41 41 40 40 40 39 38 37 37 36 36 38 39 41 41 40 39 37 35 34 33 31 30 30 31 31 32 31 30 29 29 29 30 30 30 29 29 29 29 30 30 30 31 31 31 31 32 32 33 33 34 34 34 35 35 35 35 35 36 36 37 38 39 40 41 42 43 44 44 45 45 45 45 45 45 45 44 44
36 37 38 38 38 37 37 38 38 37 37 36 35 34 34 34 35 35 37 38 40 41 41 39 37 36 35 34 33 32 31 31 32 32 32 32 31 29 28 29 30 30 30 29 29 29 29 30 30 30 30 30 30 30 31 31 32 32 33 34 34 34 34 34 35 35 36 36 37 38 39 40 40 41 42 43 43 44 44 44 45 45 45 45 45 45
37 37 38 38 37 36 36 35 35 34 33 32 31 31 32 33 34 36 37 39 41 41 40 38 36 35 35 35 34 32 31 31 32 33 33 33 31 29 28 29 29 29 29 29 28 29 29 29 29 29 29 29 29 29 30 30 31 32 33 33 33 34 34 34 34 35 35 36 36 37 38 39 40 41 41 42 42 43 43 44 44 45 45 45 45 45
38 37 37 36 36 35 35 34 33 33 33 32 31 32 33 34 35 37 39 41 42 41 39 37 35 35 35 35 35 33 32 32 32 33 33 33 32 29 28 28 29 28 28 28 28 28 28 28 28 28 28 28 28 28 29 30 31 32 32 32 33 33 33 33 33 34 34 35 35 36 37 37 38 39 40 41 41 42 42 43 44 44 45 45 45 45
36 36 35 35 35 34 34 34 33 33 34 34 34 35 36 37 38 40 41 42 42 40 38 36 35 36 36 36 35 34 33 32 32 33 34 34 32 30 28 28 28 28 27 27 28 28 28 27 27 26 26 26 27 27 28 29 30 31 31 31 31 32 32 32 33 33 33 34 34 35 35 36 37 38 38 39 40 40 41 42 43 44 44 44 44 44
35 35 35 35 35 35 34 34 34 35 35 36 37 38 39 41 42 42 42 42 40 39 37 36 36 37 37 37 36 35 33 33 33 34 34 34 33 30 28 28 28 28 28 27 27 27 27 26 25 25 25 26 26 27 28 29 29 30 30 30 30 31 31 32 32 32 33 33 34 34 35 35 36 37 37 38 38 39 40 41 42 43 43 43 44 44
35 35 35 35 35 35 35 35 35 35 36 37 38 40 41 42 43 42 42 40 38 37 37 38 38 39 38 37 36 35 34 34 34 34 35 34 34 32 29 28 28 28 28 27 26 26 26 25 25 24 25 25 26 27 28 28 29 29 29 29 30 30 31 31 31 32 32 33 33 34 34 35 35 36 37 37 37 38 39 40 41 42 42 43 43 43
36 36 36 36 35 35 35 35 35 35 36 37 38 39 40 41 41 40 39 38 37 37 38 40 40 39 38 37 37 36 35 35 35 34 34 34 34 33 30 29 29 29 28 27 26 26 25 25 24 24 25 26 26 27 28 28 28 28 28 29 29 30 30 30 31 31 31 32 32 33 34 34 35 35 36 36 36 37 38 39 40 41 41 42 42 42
37 37 36 36 36 35 35 35 35 36 37 38 38 38 38 39 39 39 38 38 38 38 40 40 40 40 39 38 37 36 35 35 35 35 34 35 34 33 31 29 29 29 28 28 27 26 26 25 25 25 25 26 27 27 28 28 28 28 28 29 29 30 30 30 30 31 31 31 32 32 33 33 34 35 35 35 35 36 37 38 39 40 40 41 41 42
37 37 36 36 36 36 36 36 36 37 38 39 40 39 38 38 38 39 39 39 39 40 40 40 40 40 39 39 37 36 35 35 35 35 34 35 34 33 30 30 29 29 29 29 28 27 27 26 26 26 26 27 27 27 28 28 28 28 28 29 29 29 30 30 30 30 31 31 31 32 32 32 33 34 34 34 35 35 36 37 38 39 40 40 41 41
36 36 36 36 36 36 36 37 37 38 40 40 41 40 39 38 39 39 40 40 40 41 41 40 40 40 39 39 38 37 36 35 35 34 35 35 34 32 31 30 30 30 30 30 30 29 28 28 27 28 28 28 28 28 28 28 28 29 29 29 30 30 30 30 30 30 30 31 31 31 31 32 32 33 33 34 34 34 35 36 37 38 39 40 40 41
34 35 35 36 36 36 36 37 38 39 40 40 40 40 39 39 39 39 40 41 41 42 41 41 41 40 39 39 39 38 37 35 35 34 34 35 34 32 31 31 30 30 31 31 31 31 31 30 29 29 29 29 28 28 28 28 29 29 29 30 30 30 30 31 31 31 31 31 31 31 31 31 31 32 32 33 33 34 35 36 37 38 38 39 40 40
32 33 33 34 34 35 35 36 37 38 39 39 39 39 38 38 39 39 40 41 41 41 41 41 41 40 39 39 38 37 36 35 34 34 34 34 33 32 31 31 31 31 31 32 32 33 33 32 31 31 30 30 29 29 29 29 29 29 29 30 30 31 31 31 31 31 31 31 31 31 31 31 31 31 31 32 33 34 35 36 37 37 38 38 39 39
30 31 31 32 33 34 34 35 36 36 37 37 37 37 38 38 38 39 39 40 40 40 40 40 40 40 39 38 37 36 35 34 34 34 34 34 33 33 32 32 32 32 32 32 33 34 34 34 34 33 32 31 31 30 30 29 29 29 29 30 30 30 30 31 31 32 32 32 32 31 31 31 31 31 31 31 32 33 34 35 36 37 38 38 38 39
29 29 30 31 31 32 33 34 34 35 35 35 36 36 36 37 37 37 38 38 39 39 39 39 39 38 38 37 36 35 34 33 33 34 34 34 34 33 33 33 32 32 33 33 34 34 34 35 35 35 34 34 33 32 31 30 30 30 30 30 30 30 30 30 31 31 32 32 32 32 32 31 31 31 31 31 32 33 34 35 36 37 37 38 38 38
28 28 29 29 30 31 31 32 32 33 33 33 34 34 35 36 36 36 37 37 37 37 37 37 37 37 36 36 35 34 33 33 33 34 34 34 34 34 34 33 33 33 33 34 34 35 35 35 36 36 36 35 34 33 32 31 31 31 30 30 30 29 29 30 30 30 31 31 32 32 32 31 31 31 30 31 31 32 33 34 35 36 37 37 38 38
27 27 28 28 29 29 30 30 31 31 31 32 32 33 34 34 35 35 35 35 35 36 36 36 36 36 35 35 34 33 33 32 33 33 34 35 35 35 34 34 34 34 34 35 35 35 36 36 36 37 37 36 36 34 34 33 32 31 31 30 30 29 29 29 30 30 30 31 31 31 31 31 31 31 30 30 31 31 32 33 34 35 36 37 38 38
26 26 27 27 28 28 29 29 29 29 30 30 31 32 32 33 33 33 34 34 34 34 34 34 35 35 35 34 34 33 33 33 33 33 34 35 35 35 35 35 35 35 35 35 36 36 37 37 37 37 37 37 37 36 35 34 33 32 31 30 30 29 29 29 29 30 30 30 30 30 30 30 30 30 30 30 31 31 32 33 33 34 36 36 37 38
26 26 26 27 27 27 28 28 29 29 29 30 30 31 31 32 32 32 33 33 33 33 34 34 34 34 34 34 34 34 33 33 33 34 34 35 36 36 36 36 35 36 36 36 36 37 37 37 37 37 37 37 37 37 36 36 34 33 32 31 30 29 29 29 29 29 30 30 30 30 30 30 30 30 30 30 30 30 31 32 33 34 35 36 37 38
26 26 27 27 27 28 28 29 29 29 30 30 30 31 31 32 32 32 33 33 33 33 34 34 34 34 34 34 34 34 34 34 34 34 34 35 36 36 36 36 36 36 36 36 37 37 37 37 37 37 37 37 37 37 37 36 35 34 33 32 30 29 29 28 29 29 29 29 30 30 30 30 30 30 30 30 30 30 30 31 31 33 34 35 36 37
27 28 28 28 28 29 29 29 30 30 31 31 31 31 32 32 32 33 33 34 34 34 34 34 35 35 35 35 34 34 34 34 34 34 34 35 35 36 36 36 36 36 36 37 37 37 37 37 37 38 38 38 38 37 37 36 36 35 34 33 31 30 29 28 28 28 29 29 29 29 30 30 30 30 30 30 30 30 30 30 31 32 33 34 35 36
28 29 29 29 30 30 30 30 31 31 31 31 32 32 32 32 33 33 34 34 34 35 35 35 35 35 35 35 35 35 35 35 34 34 35 35 35 36 36 36 36 37 37 37 37 37 37 37 37 38 38 38 38 38 37 37 36 36 35 34 33 32 30 29 29 29 29 29 29 29 30 30 30 30 30 30 29 29 29 30 30 30 32 33 34 35
29 29 30 30 30 31 31 31 31 32 32 32 32 32 33 33 34 34 34 34 35 35 36 36 36 35 35 35 35 35 35 35 35 35 35 35 35 36 36 37 37 37 37 37 37 37 37 37 37 38 38 38 38 38 38 37 37 36 36 36 35 34 32 31 30 30 29 29 29 29 30 30 30 30 30 29 29 29 29 29 29 30 30 32 33 34
30 30 30 31 31 31 32 32 32 32 32 32 33 33 33 34 34 34 34 35 35 35 36 36 36 36 35 35 35 35 35 35 35 35 35 35 35 36 36 37 37 37 37 37 37 37 37 37 37 38 38 38 38 38 38 37 37 37 36 36 36 36 34 33 32 31 30 30 29 29 30 30 30 30 30 29 29 29 28 28 29 29 30 30 32 33
30 30 31 31 31 32 32 32 32 32 33 33 33 33 34 34 34 34 35 35 35 35 36 36 36 36 36 35 35 35 35 35 35 35 35 35 36 36 36 37 37 38 38 38 38 38 38 38 38 38 38 38 38 38 38 38 37 37 37 37 37 37 36 35 34 33 32 31 30 30 30 30 31 31 30 29 29 28 28 28 28 28 29 30 31 32
30 30 31 31 31 31 32 32 32 33 33 33 33 33 34 34 34 34 34 35 35 35 36 36 36 36 35 35 35 35 35 35 35 35 36 36 36 36 37 37 38 38 38 38 38 38 38 38 38 38 39 39 39 38 38 38 38 38 38 38 38 38 37 36 36 35 34 33 32 31 31 31 31 31 30 30 29 28 28 28 28 28 28 29 30 31
30 30 30 31 31 31 32 32 32 33 33 33 33 33 33 34 34 34 34 34 34 35 35 36 36 35 35 35 35 35 34 35 35 35 35 36 36 37 37 37 38 38 38 39 39 39 39 39 39 39 39 39 39 39 38 38 39 39 39 39 39 39 38 37 37 36 36 35 34 33 32 32 32 32 31 30 29 29 28 28 27 27 28 28 29 30
29 30 30 31 31 31 32 32 32 32 32 32 33 33 33 33 34 34 34 34 34 34 35 35 35 35 35 35 35 34 34 34 34 35 35 35 36 37 37 38 38 38 39 39 39 39 39 39 39 40 40 40 39 39 39 39 39 40 40 40 40 40 39 39 38 37 37 36 35 35 34 33 33 32 32 31 31 29 28 28 27 27 28 28 29 30
29 30 30 30 31 31 31 31 32 32 32 32 32 33 33 33 33 33 34 34 34 34 34 34 34 35 35 35 35 35 35 34 34 34 35 35 36 36 37 38 38 39 39 39 40 40 40 40 40 40 40 40 40 40 40 40 40 40 41 41 41 41 40 40 39 38 38 37 37 36 35 34 34 34 33 33 32 30 29 28 27 27 27 28 28 29
30 30 30 30 31 31 31 31 32 32 32 32 32 32 33 33 33 33 33 34 34 34 34 34 34 34 34 34 35 35 35 35 35 35 35 35 36 36 37 38 38 39 39 40 40 40 40 41 41 41 41 41 40 40 40 40 41 41 41 42 42 41 41 41 40 40 39 38 38 37 36 35 35 34 34 34 33 32 31 29 28 27 27 28 28 29
30 30 31 31 31 31 31 32 32 32 32 32 32 32 33 33 33 33 34 34 34 34 34 34 34 34 34 34 35 35 35 35 35 35 35 36 36 37 37 38 38 39 39 40 40 41 41 41 41 41 41 41 41 41 41 41 42 42 42 42 42 42 42 42 41 41 40 39 38 37 36 36 35 35 35 35 34 34 32 31 29 28 28 28 28 29
31 31 31 31 32 32 32 32 32 32 33 33 33 33 33 33 33 34 34 34 34 34 34 35 35 35 35 35 35 35 35 35 35 36 36 36 37 37 38 38 39 39 40 40 41 41 41 41 41 41 40 40 41 41 41 41 42 42 42 42 42 42 42 42 42 41 41 40 39 38 37 36 36 36 36 36 36 35 34 33 31 30 29 29 29 29
Wind_Direction
232 230 229 230 234 240 246 250 254 257 258 258 259 259 259 259 259 259 259 259 259 260 261 262 263 265 265 265 265 264 262 261 259 258 257 256 256 255 254 254 255 255 256 258 259 260 260 261 262 262 263 264 265 265 266 267 268 269 270 271 271 272 272 272 272 272 271 271 270 269 268 266 265 263 262 260 259 257 255 253 251 250 249 249 249 250
233 233 232 232 234 237 243 247 251 255 257 258 259 259 260 261 262 263 263 263 262 261 260 260 261 262 263 264 264 263 261 259 257 255 255 255 255 255 255 255 256 256 257 259 260 261 262 263 263 264 264 265 266 267 268 269 270 271 272 273 274 274 274 275 275 274 274 273 272 271 270 269 267 266 264 262 261 259 257 255 254 252 251 250 250 250
235 235 235 235 236 238 241 246 249 252 255 257 258 259 260 262 264 265 267 267 265 263 261 260 260 260 261 262 263 262 261 259 256 254 252 252 253 254 255 256 257 258 259 260 261 262 263 263 264 265 266 266 268 269 270 271 272 273 274 275 275 276 276 276 276 276 275 275 274 273 272 270 269 268 266 264 262 261 259 257 256 254 252 251 250 250
238 237 237 238 238 239 241 244 247 250 253 255 257 259 260 261 263 265 267 268 267 266 264 263 262 262 262 262 262 262 261 260 257 254 252 251 252 253 255 256 258 259 260 261 262 263 263 264 265 266 267 268 269 270 271 272 273 274 275 276 276 277 277 277 277 277 276 276 275 274 273 272 270 269 267 266 264 262 261 259 258 256 254 253 251 250
241 240 239 239 240 240 241 242 244 247 250 254 256 258 260 262 263 264 265 266 267 267 266 266 265 265 264 263 262 262 261 261 259 256 253 252 251 252 254 256 258 259 260 261 262 263 264 265 265 266 267 268 269 271 272 273 273 274 275 275 276 276 277 277 277 277 277 277 276 276 274 273 272 270 269 267 265 264 262 261 259 258 256 254 253 251
243 241 240 240 240 240 240 241 242 245 248 252 255 258 260 262 263 264 265 266 266 266 267 267 267 267 266 265 264 263 262 262 260 258 256 254 253 254 255 257 258 259 260 261 262 264 264 265 266 267 268 269 270 271 272 272 273 273 274 274 275 275 276 276 277 277 277 277 277 277 276 275 273 272 270 269 267 265 263 262 260 259 257 256 254 252
245 244 242 240 240 239 240 241 242 244 247 250 254 257 259 261 263 264 266 267 267 267 267 266 266 266 266 265 265 264 263 263 262 261 260 258 258 258 258 258 258 259 259 261 262 263 264 266 267 267 268 269 270 271 271 272 272 272 272 273 273 274 274 275 275 276 276 277 277 277 276 276 275 274 272 270 269 267 265 263 261 259 258 257 255 254
248 246 244 243 241 241 241 242 243 245 247 249 253 256 258 261 263 265 267 268 269 269 268 266 265 265 265 265 265 265 265 265 265 265 264 263 262 261 260 259 259 259 259 260 261 263 264 265 266 267 269 270 270 271 272 272 272 272 272 272 273 273 273 274 274 275 275 275 276 276 276 276 276 275 274 273 271 269 267 265 262 260 259 257 256 255
247 247 247 246 245 243 243 243 244 246 248 250 253 255 258 261 264 266 268 270 272 271 270 267 265 263 263 264 265 266 267 268 268 267 266 265 263 261 259 259 258 259 259 260 261 262 263 264 266 267 268 270 271 271 272 272 272 272 272 272 273 273 273 273 273 274 274 274 274 275 275 275 275 275 275 274 273 271 269 267 264 262 260 258 256 255
246 246 248 248 248 247 247 246 246 247 250 252 255 257 259 262 265 267 269 271 272 272 271 269 266 264 263 264 266 268 269 269 268 266 265 263 262 260 259 258 258 259 259 259 260 261 262 264 265 266 268 269 270 271 271 272 272 272 272 273 273 273 273 273 273 273 273 273 273 273 274 274 274 274 274 274 274 273 271 270 267 265 262 259 258 256
248 247 247 249 250 250 250 250 250 251 254 257 260 261 263 265 266 268 269 270 271 271 270 269 267 266 265 267 268 268 269 268 266 264 263 262 262 261 260 259 259 259 259 260 261 261 263 264 265 266 267 268 269 269 270 270 271 272 272 273 273 273 273 274 273 273 273 273 273 272 272 272 273 273 273 273 273 273 273 271 270 267 265 262 259 257
251 250 249 249 251 252 253 253 254 256 259 261 264 266 267 266 266 266 267 269 270 270 270 269 268 267 267 269 270 269 267 265 263 262 261 261 261 261 261 261 260 260 261 261 262 263 263 264 265 266 266 267 267 268 269 269 270 271 272 272 273 273 274 274 274 273 273 273 272 272 272 271 271 272 272 272 272 272 272 272 271 270 268 265 262 259
251 251 251 251 252 253 255 256 257 258 259 260 262 263 265 265 265 265 266 268 269 269 270 271 271 269 268 269 270 270 268 264 261 259 259 260 261 262 262 263 263 263 263 263 263 264 264 264 264 265 265 266 266 267 268 269 269 270 271 272 272 273 273 274 274 273 273 273 272 272 271 271 270 270 270 270 271 271 271 271 271 270 269 268 265 263
251 251 252 253 254 256 257 258 258 257 256 256 257 258 260 262 263 265 267 268 269 270 271 272 272 272 270 271 271 271 268 265 261 259 259 260 261 262 263 264 264 264 264 264 264 263 263 264 264 265 265 266 267 267 268 269 269 270 270 271 271 272 272 272 273 273 273 273 273 272 271 271 270 269 269 269 269 269 269 270 270 269 269 268 267 265
251 252 253 254 255 257 258 258 257 256 254 254 254 256 259 261 263 265 267 268 269 269 269 269 270 270 271 272 272 271 268 266 263 261 260 260 261 262 263 264 264 264 263 263 263 263 262 263 264 265 266 267 268 268 269 270 270 271 271 271 271 271 271 271 272 272 272 272 272 272 271 271 270 269 268 268 267 267 267 268 268 268 268 267 267 266
252 253 254 255 256 256 256 256 255 254 254 254 254 255 257 260 262 264 265 265 265 264 264 263 264 266 269 270 270 269 268 266 264 262 261 261 261 262 263 263 263 262 262 262 262 262 262 263 264 265 266 267 268 269 270 271 272 272 272 272 272 272 272 271 271 271 272 272 272 272 271 271 270 269 268 267 266 266 266 266 266 266 266 266 266 265
253 254 255 256 256 256 256 256 255 255 255 255 255 256 257 260 261 263 263 261 259 259 259 259 261 264 266 267 267 266 266 266 264 263 261 261 261 260 261 262 262 261 261 261 261 262 263 263 264 265 266 268 269 270 271 272 272 273 273 274 274 274 273 273 273 273 272 272 272 271 271 270 270 269 267 266 265 265 264 264 264 264 264 264 264 264
255 255 256 257 257 257 257 256 257 257 257 257 257 257 258 259 260 261 261 258 256 256 256 258 260 263 266 267 266 264 264 265 265 263 262 261 260 259 259 260 260 260 260 260 261 262 263 264 265 266 266 267 268 269 270 272 272 273 274 274 275 275 275 275 275 275 274 274 273 272 272 271 270 269 268 266 265 264 263 263 262 262 263 263 263 263
256 256 257 258 258 258 258 258 258 259 259 258 258 258 259 259 260 260 259 257 256 256 257 259 262 264 266 267 266 264 264 265 265 265 263 261 259 257 257 259 260 260 260 260 261 262 263 264 265 265 266 267 268 269 270 271 272 273 274 275 275 276 276 276 276 276 276 275 275 274 273 272 271 270 268 267 265 264 263 262 261 261 261 261 261 262
256 257 258 258 258 259 260 260 260 260 260 260 260 259 260 260 260 259 258 257 257 258 260 262 264 265 266 266 266 265 265 265 265 265 263 261 258 257 257 258 260 260 260 260 261 262 263 264 264 265 266 267 267 269 270 271 272 273 274 274 275 275 276 276 277 277 277 277 277 276 275 274 273 271 269 268 266 264 263 261 261 261 260 260 260 261
256 257 258 258 258 258 259 260 260 261 260 261 261 261 260 259 259 258 258 258 259 261 262 263 264 265 265 266 267 267 265 266 266 265 262 260 258 257 257 258 259 260 260 260 261 261 262 263 263 264 265 266 267 268 269 271 272 272 273 273 274 275 276 277 278 278 279 279 279 279 278 277 275 274 272 270 267 265 263 262 261 260 260 260 260 260
258 258 258 258 257 257 256 256 256 257 257 258 259 259 258 258 257 257 258 259 260 261 262 262 263 264 265 267 267 266 265 265 265 265 263 262 260 258 257 258 259 260 260 260 260 260 261 262 262 263 263 265 266 267 269 269 270 271 271 272 274 275 277 278 279 280 280 281 281 280 280 279 278 277 275 273 270 267 265 262 261 260 259 259 259 259
260 259 257 257 256 255 253 252 251 250 250 250 251 253 254 254 254 255 256 258 259 260 261 262 262 263 264 265 265 265 264 264 264 264 264 264 263 260 258 259 260 261 261 261 261 260 260 260 261 262 263 264 266 267 267 268 268 269 271 272 274 276 277 278 278 279 279 279 279 279 279 279 279 278 277 275 272 269 266 263 261 260 259 258 258 258
261 260 258 256 255 253 252 250 247 245 244 244 244 245 247 248 249 251 253 255 257 259 259 260 261 261 263 263 263 263 263 264 264 265 265 265 264 262 260 261 262 262 261 260 260 260 260 260 261 262 263 264 265 266 266 267 268 270 271 273 275 276 276 276 277 277 277 277 277 277 277 277 277 276 275 274 272 270 267 264 262 260 259 258 258 258
261 259 258 256 255 254 252 251 248 245 242 241 241 241 243 244 246 249 251 253 255 256 258 259 259 260 261 262 262 262 262 263 264 265 266 267 266 264 263 264 265 264 262 260 260 260 261 261 261 262 263 264 265 265 266 267 269 271 272 274 275 275 275 276 276 276 276 276 276 276 276 275 275 274 274 273 271 269 267 264 262 260 259 258 258 258
258 257 256 255 255 254 254 252 250 247 244 243 242 242 243 245 246 248 250 252 253 255 256 257 258 259 260 261 262 262 262 262 263 265 267 268 268 267 266 266 266 265 263 261 261 261 262 262 262 262 263 264 265 265 267 268 270 272 273 274 275 275 276 276 276 277 277 277 277 276 276 275 275 274 273 272 271 269 267 264 262 260 259 258 258 258
255 255 254 254 253 253 252 251 249 247 246 246 246 246 247 247 247 248 250 251 252 254 255 256 257 259 260 261 262 263 263 263 264 265 267 268 268 268 267 267 267 266 265 264 263 263 263 262 262 262 263 264 265 266 268 269 271 272 274 274 275 275 276 276 277 277 277 278 277 277 277 276 276 275 274 273 271 269 267 265 263 261 259 258 258 257
253 253 253 252 252 251 250 248 246 245 245 247 248 249 249 249 248 248 249 250 251 253 254 255 257 259 261 262 263 263 264 264 265 266 266 267 268 268 267 267 267 267 267 266 264 263 263 263 263 263 263 264 266 267 269 270 272 273 274 274 275 275 276 276 277 277 278 278 278 278 277 277 276 275 274 273 271 269 267 265 263 261 260 259 258 257
253 253 253 252 251 250 249 246 244 243 244 246 249 251 252 250 248 247 247 248 250 252 254 255 257 259 261 262 264 264 265 265 265 265 265 266 267 267 267 268 268 269 269 268 266 265 264 264 264 264 264 265 267 268 270 271 272 273 273 274 275 275 276 276 277 277 278 278 279 279 278 277 277 276 274 273 270 268 266 264 263 261 260 258 258 257
252 253 253 252 251 250 248 246 244 244 244 246 249 252 253 252 250 249 248 248 250 252 254 255 257 259 260 262 264 265 265 265 265 264 265 266 267 267 267 268 269 269 269 269 268 266 265 264 264 265 265 266 267 269 270 272 273 274 274 275 275 275 276 276 277 278 278 279 279 279 279 278 278 277 275 273 270 268 266 264 262 261 259 258 257 257
252 252 252 252 251 250 249 247 246 246 246 247 250 252 253 253 252 251 250 250 251 252 254 256 257 259 260 262 263 264 264 264 264 264 265 266 267 267 267 268 268 268 269 269 269 268 266 264 264 265 266 266 267 269 270 272 273 274 276 276 276 277 277 277 278 278 279 279 280 280 280 279 279 277 276 274 271 268 266 264 262 260 259 258 257 257
252 252 252 252 251 250 249 248 248 247 248 249 250 252 252 253 252 252 251 251 252 252 254 256 257 259 260 261 262 262 262 263 264 264 265 266 267 266 267 267 267 268 268 269 270 270 269 267 265 264 265 266 267 268 269 271 272 274 275 276 277 278 278 279 279 279 279 279 279 279 280 280 279 278 276 274 272 269 266 264 262 260 259 258 257 257
252 252 252 251 251 251 250 249 249 249 249 250 250 251 252 252 252 252 252 252 252 253 254 255 257 258 259 260 260 261 261 262 263 264 265 266 266 266 266 267 267 268 268 269 270 271 271 270 268 267 266 266 267 268 269 270 271 272 273 274 275 277 278 279 280 280 280 280 280 279 279 279 279 278 276 274 272 270 267 265 263 261 259 258 257 257
252 252 251 251 251 251 251 250 250 250 250 251 251 251 252 252 252 252 251 252 252 253 254 255 256 257 258 259 260 260 261 261 262 263 264 265 265 266 266 266 267 268 268 269 270 271 271 271 271 270 269 268 268 269 270 270 271 271 272 273 274 275 276 277 278 279 279 280 280 280 279 279 278 277 276 274 272 270 268 266 264 262 260 259 258 257
252 251 251 251 251 251 251 251 251 251 251 251 251 252 252 252 252 252 252 252 253 253 254 255 256 257 257 258 259 260 260 261 261 262 263 264 265 265 266 266 267 268 268 269 270 270 271 271 272 272 272 271 270 270 271 271 271 271 272 272 273 274 274 275 276 277 277 278 279 279 279 278 278 276 275 274 272 270 268 266 264 263 261 260 258 258
251 251 251 251 251 251 251 252 252 252 252 252 252 252 252 252 252 253 253 253 253 254 255 255 255 256 257 257 258 259 259 259 260 261 263 264 265 266 266 267 267 268 269 269 270 270 271 271 271 272 272 273 272 272 272 271 271 272 272 273 274 274 275 275 276 276 277 277 277 278 278 277 276 275 274 273 271 269 268 266 264 263 261 260 259 258
251 251 251 251 251 251 252 252 252 252 252 252 252 252 252 253 253 254 254 254 254 255 255 256 256 256 257 257 257 258 258 258 259 261 262 264 265 266 267 267 268 268 269 270 270 270 271 271 271 272 273 273 274 273 273 272 272 272 273 274 274 275 276 276 277 277 277 278 278 277 277 276 275 274 273 271 270 268 267 266 264 263 261 260 259 258
252 251 251 251 251 251 252 252 252 252 252 252 252 253 253 254 254 255 255 255 255 256 256 257 257 257 258 258 258 258 259 259 259 260 262 263 265 266 267 267 268 269 269 270 271 271 272 272 272 273 273 273 273 274 274 273 273 273 274 273 274 275 276 277 278 278 278 279 278 278 277 276 275 273 272 270 269 267 266 265 263 262 261 260 259 258
252 252 252 252 252 252 252 252 252 252 252 252 252 253 253 254 255 255 256 256 257 257 257 257 258 258 259 259 260 260 260 260 260 261 262 263 264 266 267 268 268 269 270 270 271 272 272 273 274 274 274 274 274 274 274 275 275 275 275 274 274 275 276 277 278 278 278 279 278 278 277 277 276 274 272 270 268 267 265 263 262 261 260 259 258 258
254 253 253 253 253 253 252 252 253 253 253 253 253 253 254 255 255 256 257 257 258 258 258 258 259 259 260 260 261 261 262 262 262 262 263 264 265 266 267 268 269 269 270 270 271 272 273 274 274 274 275 275 275 275 275 276 277 277 277 277 276 276 276 276 276 277 277 278 278 278 277 277 276 275 273 271 269 267 265 263 261 260 259 258 258 257
255 255 254 254 254 254 254 253 253 253 254 254 254 255 255 255 256 257 257 258 259 259 260 260 260 261 261 262 262 263 263 263 263 264 264 265 266 266 267 268 269 270 270 271 271 272 273 274 274 275 275 276 276 276 276 277 278 278 279 279 278 277 275 275 276 276 276 277 277 277 277 277 276 275 274 272 270 268 265 263 261 259 258 258 257 257
256 256 255 255 255 255 255 255 255 255 255 255 255 255 255 256 256 257 257 258 259 260 260 261 261 262 263 263 263 264 264 265 265 265 266 266 267 267 268 269 270 270 271 271 272 272 273 274 274 275 275 276 276 277 277 277 278 279 280 281 280 278 277 277 277 277 277 276 276 276 276 276 276 275 274 272 271 269 266 264 262 260 258 257 256 256
257 257 256 257 257 257 257 256 256 256 256 256 256 256 256 256 256 257 257 258 259 260 260 261 262 262 263 264 264 265 266 266 266 267 267 267 268 268 269 270 270 271 271 272 272 273 273 273 274 275 275 276 276 277 277 278 279 280 281 281 281 281 281 279 278 277 277 277 277 276 276 276 275 274 274 273 271 269 267 265 262 260 258 257 256 255
258 257 258 258 258 258 258 258 258 258 257 257 257 257 257 257 257 257 257 258 258 259 260 261 261 262 263 264 264 265 266 266 267 268 268 268 269 269 270 270 271 271 272 272 273 273 273 274 274 275 275 276 277 277 278 279 280 280 281 281 282 282 282 281 279 278 278 278 277 277 276 275 274 274 273 273 272 270 268 266 263 261 259 257 256 255
258 258 258 258 259 259 259 259 259 258 258 258 258 257 257 257 257 257 257 258 258 259 259 260 261 262 262 263 263 264 265 265 266 267 268 269 269 269 270 270 271 271 272 272 273 273 274 274 275 275 275 276 277 278 279 280 280 281 281 281 281 281 281 281 281 281 281 279 278 277 276 275 274 274 273 272 271 270 268 266 264 261 259 257 256 255
259 259 259 259 259 259 259 259 259 259 259 259 258 258 258 258 258 258 258 258 258 259 259 259 260 261 262 262 262 263 263 264 265 266 267 268 268 269 270 270 271 271 272 272 273 274 274 275 275 275 276 276 277 278 279 280 281 281 281 281 281 281 281 282 282 282 282 281 280 278 277 276 275 274 273 272 270 269 268 267 265 263 260 258 256 255
261 260 260 260 260 260 259 259 260 260 260 260 260 259 259 259 259 259 259 259 259 259 259 260 260 261 262 262 262 262 262 263 263 264 265 266 267 268 269 270 270 271 272 272 273 274 274 275 275 276 276 277 277 278 279 280 280 281 281 281 281 281 281 282 282 282 282 281 281 280 278 277 277 276 274 272 271 269 268 267 265 264 262 259 257 255
263 262 261 261 261 261 261 261 261 261 261 261 261 261 261 261 261 260 260 260 260 260 260 260 261 261 262 262 262 262 262 262 262 263 263 264 265 267 268 269 270 270 271 272 273 273 274 275 275 276 276 277 278 278 278 279 279 280 280 280 281 281 281 281 281 281 281 281 281 280 280 279 279 278 276 274 273 271 269 267 265 264 263 261 259 257
264 264 263 263 262 262 262 262 262 262 262 262 262 262 262 262 262 262 262 262 261 261 261 262 262 262 262 263 263 263 263 263 263 263 263 263 264 265 266 267 268 269 270 271 272 273 273 274 275 275 276 277 278 278 278 278 278 279 279 280 280 281 281 281 281 281 281 281 281 281 281 281 280 279 278 277 275 273 270 268 266 264 263 262 260 258
266 265 265 264 264 263 263 263 263 263 263 262 262 262 263 263 263 263 263 263 263 263 263 262 263 263 263 263 263 263 264 264 264 264 264 264 264 265 265 266 267 268 269 270 271 272 272 273 274 275 276 277 277 278 278 278 278 278 278 279 280 280 280 281 280 281 281 281 281 281 281 281 280 280 279 278 277 274 272 270 267 265 264 262 260 258
268 267 266 266 265 265 264 264 264 264 264 263 263 263 263 263 264 264 264 264 264 264 264 263 263 263 264 264 264 264 264 265 265 265 265 265 265 265 266 266 267 268 268 269 270 270 271 272 272 273 274 276 277 277 277 277 277 277 278 278 279 279 280 280 280 281 281 281 281 281 280 280 280 279 279 278 277 275 273 271 269 267 265 263 261 259
Height
3010 3011 3012 3013 3013 3013 3013 3012 3013 3013 3013 3013 3012 3012 3012 3012 3012 3012 3012 3013 3013 3014 3014 3014 3014 3014 3014 3014 3014 3015 3016 3016 3017 3017 3017 3018 3018 3019 3019 3020 3020 3021 3022 3022 3022 3023 3023 3024 3024 3024 3025 3025 3026 3026 3027 3027 3028 3029 3029 3030 3030 3031 3031 3032 3032 3033 3034 3034 3035 3036 3037 3037 3038 3039 3040 3041 3042 3042 3043 3044 3045 3046 3047 3049 3050 3051
3008 3009 3009 3010 3011 3011 3011 3011 3011 3011 3011 3010 3010 3010 3009 3009 3009 3010 3010 3010 3011 3011 3011 3011 3012 3012 3012 3012 3012 3012 3013 3014 3014 3015 3015 3015 3016 3016 3017 3017 3018 3019 3019 3019 3020 3020 3021 3021 3021 3022 3022 3023 3023 3024 3024 3025 3025 3026 3027 3027 3028 3028 3029 3029 3029 3030 3030 3031 3032 3032 3033 3034 3034 3035 3036 3037 3038 3039 3039 3040 3041 3042 3043 3044 3046 3047
3006 3006 3007 3007 3008 3008 3009 3009 3009 3009 3009 3009 3008 3008 3007 3007 3007 3008 3008 3008 3008 3008 3008 3009 3009 3009 3010 3010 3010 3010 3010 3011 3012 3013 3013 3013 3014 3014 3014 3015 3015 3016 3016 3017 3017 3018 3018 3019 3019 3019 3020 3020 3021 3021 3022 3022 3023 3024 3024 3024 3025 3025 3026 3026 3027 3027 3028 3028 3029 3029 3030 3030 3031 3032 3033 3034 3034 3035 3036 3037 3038 3039 3039 3041 3042 3043
3003 3004 3004 3005 3005 3006 3006 3007 3007 3007 3006 3006 3006 3005 3005 3005 3005 3006 3006 3006 3006 3005 3006 3006 3007 3007 3008 3008 3008 3008 3008 3008 3009 3010 3011 3011 3011 3011 3012 3012 3013 3013 3014 3014 3014 3015 3016 3016 3017 3017 3017 3018 3018 3019 3019 3020 3020 3021 3021 3022 3022 3023 3023 3024 3024 3024 3025 3025 3026 3026 3027 3027 3028 3029 3029 3030 3031 3032 3032 3033 3034 3035 3036 3037 3038 3039
2999 3001 3001 3002 3003 3003 3004 3004 3004 3004 3004 3004 3004 3003 3003 3003 3003 3004 3004 3004 3003 3003 3003 3004 3004 3005 3005 3005 3005 3005 3005 3005 3006 3007 3008 3009 3009 3009 3009 3009 3010 3010 3011 3011 3012 3012 3013 3014 3014 3014 3015 3015 3016 3016 3017 3018 3018 3019 3019 3019 3019 3020 3020 3021 3021 3021 3022 3022 3023 3023 3024 3024 3025 3025 3026 3027 3027 3028 3029 3030 3030 3031 3032 3033 3034 3035
2997 2998 2999 2999 3000 3000 3001 3002 3002 3002 3002 3001 3001 3001 3000 3000 3001 3001 3001 3001 3001 3001 3001 3001 3002 3002 3003 3003 3003 3003 3003 3003 3003 3004 3005 3006 3006 3007 3007 3007 3007 3007 3008 3009 3009 3009 3010 3011 3011 3012 3012 3013 3013 3014 3014 3015 3015 3016 3016 3017 3017 3017 3018 3018 3018 3019 3019 3019 3020 3020 3021 3021 3022 3023 3023 3024 3024 3025 3025 3026 3027 3028 3029 3029 3030 3031
2993 2994 2996 2996 2997 2998 2998 2999 2999 2999 2999 2999 2999 2998 2998 2998 2998 2999 2999 2999 2999 2999 2999 2999 2999 2999 3000 3000 3000 3000 3000 3000 3001 3001 3002 3003 3004 3004 3004 3004 3004 3004 3005 3006 3006 3007 3007 3008 3009 3009 3009 3010 3011 3011 3012 3013 3013 3013 3014 3014 3014 3014 3014 3015 3015 3016 3016 3017 3017 3018 3018 3019 3019 3019 3020 3020 3021 3022 3022 3023 3023 3024 3025 3026 3027 3028
2990 2991 2992 2993 2994 2994 2995 2996 2996 2996 2996 2996 2996 2996 2995 2995 2995 2996 2996 2997 2997 2997 2997 2997 2997 2997 2997 2997 2997 2998 2998 2999 2999 2999 3000 3000 3001 3001 3001 3001 3001 3001 3002 3003 3004 3004 3004 3005 3006 3006 3007 3008 3008 3009 3009 3010 3010 3010 3011 3011 3011 3011 3012 3012 3012 3013 3013 3014 3014 3014 3015 3016 3016 3017 3017 3018 3018 3019 3019 3019 3020 3021 3021 3022 3023 3024
2988 2989 2989 2990 2990 2991 2992 2993 2993 2994 2993 2993 2993 2993 2992 2992 2993 2993 2994 2994 2994 2994 2994 2994 2994 2994 2994 2995 2995 2996 2996 2997 2997 2997 2997 2997 2998 2998 2997 2997 2998 2998 2999 3000 3001 3001 3002 3002 3003 3004 3004 3005 3006 3006 3007 3007 3007 3007 3008 3008 3008 3009 3009 3009 3009 3010 3010 3011 3011 3012 3012 3013 3013 3014 3014 3014 3015 3015 3016 3016 3017 3017 3018 3019 3019 3020
2985 2986 2987 2987 2988 2988 2989 2989 2990 2990 2990 2989 2989 2989 2989 2990 2990 2991 2991 2991 2991 2991 2991 2991 2991 2991 2992 2993 2994 2994 2994 2994 2994 2994 2994 2994 2994 2994 2994 2994 2995 2996 2996 2997 2998 2999 2999 3000 3000 3001 3002 3003 3003 3004 3004 3004 3004 3004 3005 3005 3005 3005 3006 3006 3007 3007 3007 3008 3008 3009 3009 3009 3010 3010 3011 3012 3012 3013 3013 3013 3014 3014 3014 3015 3015 3016
2982 2983 2984 2985 2985 2985 2985 2986 2986 2987 2987 2987 2987 2986 2987 2987 2988 2988 2988 2988 2988 2988 2988 2988 2988 2988 2989 2990 2991 2992 2992 2992 2992 2991 2991 2991 2991 2991 2991 2992 2992 2993 2994 2995 2996 2996 2997 2998 2998 2999 2999 3000 3000 3000 3001 3001 3001 3001 3002 3002 3002 3003 3003 3003 3004 3004 3004 3004 3005 3005 3006 3006 3007 3007 3008 3009 3009 3009 3010 3010 3010 3010 3011 3011 3012 3012
2979 2980 2980 2981 2982 2982 2982 2983 2983 2984 2984 2985 2985 2985 2984 2984 2984 2985 2985 2985 2985 2985 2985 2985 2985 2986 2987 2988 2989 2989 2989 2989 2989 2989 2989 2989 2989 2989 2989 2989 2990 2991 2992 2993 2994 2994 2994 2995 2995 2996 2996 2997 2997 2997 2998 2998 2998 2999 2999 2999 2999 3000 3000 3000 3000 3001 3001 3001 3002 3002 3003 3003 3004 3004 3004 3005 3006 3006 3006 3007 3007 3007 3007 3008 3008 3009
2976 2976 2977 2978 2979 2979 2979 2979 2980 2981 2983 2983 2983 2983 2982 2981 2981 2981 2982 2982 2982 2982 2982 2982 2983 2983 2984 2985 2986 2986 2986 2986 2985 2985 2986 2986 2986 2986 2987 2987 2988 2989 2989 2990 2991 2992 2992 2992 2992 2993 2993 2994 2994 2994 2995 2995 2995 2996 2996 2996 2997 2997 2997 2997 2997 2998 2998 2998 2998 2999 2999 2999 3000 3000 3001 3002 3002 3003 3003 3003 3004 3004 3004 3004 3004 3005
2973 2973 2974 2975 2975 2975 2975 2976 2977 2978 2980 2980 2980 2979 2979 2978 2978 2978 2979 2979 2979 2979 2979 2980 2980 2981 2982 2983 2983 2983 2983 2983 2982 2983 2983 2984 2984 2984 2984 2985 2985 2986 2987 2988 2988 2989 2989 2989 2989 2990 2990 2990 2991 2991 2992 2992 2993 2993 2993 2994 2994 2994 2994 2994 2994 2994 2994 2995 2995 2995 2996 2996 2996 2997 2998 2998 2999 2999 2999 3000 3000 3000 3001 3001 3001 3001
2969 2970 2971 2971 2972 2972 2973 2973 2974 2975 2975 2975 2975 2975 2974 2975 2975 2976 2977 2977 2977 2977 2977 2978 2979 2979 2979 2980 2981 2981 2980 2979 2979 2980 2980 2981 2982 2982 2982 2982 2983 2984 2984 2984 2985 2985 2986 2986 2986 2987 2987 2988 2988 2989 2989 2989 2990 2990 2990 2991 2991 2991 2991 2991 2991 2991 2991 2992 2992 2992 2992 2992 2993 2993 2994 2994 2995 2995 2996 2996 2997 2997 2997 2998 2998 2998
2966 2967 2967 2968 2968 2969 2969 2970 2970 2971 2970 2970 2971 2971 2971 2972 2972 2973 2974 2974 2975 2975 2976 2976 2976 2976 2977 2978 2979 2978 2978 2977 2977 2977 2978 2979 2980 2980 2980 2979 2980 2980 2981 2982 2982 2983 2983 2984 2984 2984 2985 2985 2986 2986 2986 2987 2987 2987 2987 2987 2988 2988 2988 2988 2988 2988 2988 2988 2989 2989 2989 2989 2989 2989 2990 2990 2991 2992 2992 2993 2993 2994 2994 2994 2994 2994
2963 2963 2964 2964 2964 2965 2966 2966 2966 2966 2966 2967 2967 2968 2968 2968 2969 2970 2971 2972 2973 2973 2973 2973 2974 2974 2974 2976 2976 2976 2975 2974 2974 2974 2975 2976 2977 2977 2977 2977 2977 2978 2978 2979 2979 2980 2981 2981 2981 2982 2983 2983 2983 2984 2984 2984 2984 2984 2984 2984 2984 2984 2984 2985 2985 2985 2985 2985 2985 2985 2985 2985 2985 2985 2986 2986 2987 2988 2988 2989 2989 2990 2990 2990 2991 2991
2959 2959 2960 2961 2961 2962 2962 2962 2962 2963 2963 2964 2964 2965 2965 2965 2966 2967 2968 2969 2969 2970 2969 2969 2970 2971 2972 2973 2973 2973 2973 2972 2972 2972 2972 2973 2974 2974 2974 2974 2974 2974 2975 2976 2977 2978 2978 2979 2979 2979 2980 2980 2981 2981 2981 2981 2981 2981 2981 2981 2981 2981 2981 2981 2982 2982 2982 2982 2982 2982 2981 2981 2981 2982 2982 2982 2983 2984 2984 2985 2985 2986 2986 2987 2987 2987
2955 2956 2957 2957 2958 2958 2958 2959 2959 2959 2960 2960 2961 2962 2962 2963 2963 2964 2965 2966 2966 2966 2966 2966 2967 2968 2969 2969 2969 2970 2970 2970 2969 2969 2969 2970 2971 2972 2972 2972 2972 2972 2973 2974 2974 2975 2975 2976 2976 2977 2977 2978 2978 2978 2979 2979 2979 2979 2979 2979 2979 2979 2979 2979 2979 2979 2978 2978 2978 2978 2978 2978 2978 2978 2978 2978 2979 2979 2980 2981 2982 2982 2983 2983 2984 2984
2952 2953 2954 2954 2955 2955 2955 2955 2956 2957 2957 2957 2958 2959 2959 2960 2961 2962 2963 2963 2963 2963 2963 2964 2964 2965 2965 2966 2966 2967 2967 2967 2967 2967 2966 2967 2968 2969 2969 2969 2969 2970 2970 2971 2972 2973 2973 2973 2974 2974 2974 2975 2975 2975 2976 2976 2976 2976 2976 2976 2975 2975 2975 2975 2975 2975 2975 2975 2975 2974 2974 2974 2974 2974 2974 2974 2974 2975 2976 2977 2978 2978 2979 2979 2980 2980
2949 2950 2951 2952 2952 2952 2952 2953 2953 2954 2954 2954 2955 2956 2957 2958 2959 2959 2959 2960 2960 2959 2960 2961 2962 2962 2962 2963 2964 2964 2965 2964 2964 2964 2963 2964 2965 2966 2967 2967 2967 2968 2968 2969 2970 2970 2970 2970 2971 2971 2972 2972 2973 2973 2973 2973 2973 2973 2973 2973 2973 2972 2973 2973 2973 2973 2972 2972 2972 2971 2971 2971 2970 2970 2970 2970 2971 2971 2972 2973 2974 2974 2975 2975 2976 2976
2946 2947 2948 2949 2949 2949 2950 2950 2951 2951 2951 2952 2953 2954 2954 2955 2956 2956 2957 2957 2957 2957 2957 2958 2958 2959 2959 2960 2961 2962 2962 2962 2961 2961 2960 2961 2962 2964 2965 2965 2964 2965 2966 2966 2967 2968 2968 2968 2968 2969 2969 2969 2970 2970 2970 2970 2970 2970 2970 2970 2970 2970 2970 2970 2970 2970 2970 2969 2969 2969 2968 2968 2968 2967 2967 2967 2968 2968 2969 2969 2970 2970 2971 2971 2972 2972
2943 2944 2945 2945 2946 2946 2947 2947 2948 2949 2949 2950 2951 2951 2951 2952 2953 2953 2954 2954 2954 2954 2954 2955 2955 2956 2957 2958 2958 2959 2959 2959 2959 2958 2958 2958 2959 2961 2962 2962 2962 2962 2963 2964 2964 2964 2964 2965 2965 2966 2967 2967 2968 2968 2968 2967 2967 2967 2967 2968 2968 2968 2968 2968 2968 2967 2967 2966 2966 2965 2965 2965 2964 2964 2964 2964 2964 2964 2965 2965 2966 2966 2967 2968 2968 2969
2940 2941 2941 2942 2943 2943 2943 2944 2945 2946 2947 2948 2948 2949 2949 2949 2949 2950 2950 2950 2951 2951 2951 2952 2953 2954 2954 2955 2956 2956 2957 2957 2956 2955 2955 2955 2956 2958 2959 2959 2959 2960 2960 2961 2961 2961 2961 2962 2963 2964 2964 2964 2965 2964 2964 2964 2964 2964 2965 2965 2965 2965 2965 2965 2964 2964 2964 2963 2963 2962 2962 2961 2961 2961 2960 2960 2960 2961 2961 2962 2962 2963 2963 2964 2964 2965
2937 2938 2938 2939 2939 2940 2940 2941 2942 2943 2944 2944 2945 2945 2946 2946 2946 2947 2947 2948 2948 2949 2949 2949 2950 2951 2952 2952 2953 2954 2954 2954 2954 2953 2953 2953 2954 2954 2956 2956 2956 2957 2957 2958 2958 2959 2959 2960 2961 2961 2962 2962 2961 2961 2961 2961 2961 2962 2962 2963 2963 2962 2962 2962 2961 2961 2961 2960 2959 2959 2959 2958 2958 2957 2957 2957 2957 2957 2957 2958 2958 2959 2959 2960 2961 2961
2934 2935 2935 2936 2936 2937 2938 2938 2939 2940 2940 2941 2942 2942 2942 2943 2943 2944 2945 2945 2946 2946 2946 2947 2947 2948 2949 2949 2950 2951 2952 2952 2951 2951 2951 2951 2951 2952 2953 2953 2954 2953 2954 2955 2956 2956 2957 2958 2958 2959 2959 2959 2959 2958 2958 2959 2959 2959 2960 2960 2959 2959 2959 2959 2959 2958 2958 2957 2957 2956 2955 2955 2954 2954 2954 2954 2954 2954 2954 2954 2955 2955 2956 2956 2957 2958
2931 2932 2932 2933 2934 2934 2935 2936 2936 2937 2937 2938 2939 2939 2939 2940 2941 2942 2942 2943 2943 2943 2943 2944 2944 2945 2946 2947 2948 2949 2949 2949 2949 2949 2949 2948 2949 2949 2950 2950 2950 2950 2951 2952 2953 2953 2954 2954 2955 2956 2956 2956 2955 2955 2955 2956 2956 2957 2957 2957 2957 2956 2956 2956 2956 2955 2955 2954 2954 2953 2953 2952 2952 2951 2951 2951 2951 2951 2951 2951 2952 2952 2952 2953 2954 2954
2928 2929 2929 2930 2931 2932 2932 2933 2934 2934 2934 2935 2935 2936 2936 2937 2939 2939 2939 2940 2940 2940 2941 2941 2942 2943 2944 2944 2945 2946 2946 2947 2947 2947 2946 2946 2946 2946 2947 2948 2948 2948 2948 2949 2949 2950 2951 2952 2952 2953 2953 2953 2953 2953 2953 2953 2954 2954 2954 2954 2954 2954 2953 2953 2953 2953 2952 2951 2951 2950 2950 2949 2949 2949 2948 2948 2948 2948 2948 2948 2948 2949 2949 2949 2950 2951
2925 2926 2927 2927 2928 2929 2929 2930 2931 2931 2932 2932 2933 2933 2934 2935 2936 2936 2936 2937 2937 2938 2938 2939 2939 2940 2941 2941 2942 2943 2944 2944 2944 2944 2943 2943 2943 2944 2945 2945 2945 2945 2945 2945 2946 2947 2948 2949 2949 2950 2950 2950 2950 2950 2950 2950 2950 2950 2950 2950 2950 2950 2950 2950 2950 2949 2949 2949 2948 2948 2947 2947 2946 2946 2946 2945 2945 2945 2945 2945 2945 2945 2946 2946 2947 2948
2922 2923 2924 2924 2925 2926 2927 2927 2928 2929 2929 2929 2930 2930 2931 2932 2933 2934 2934 2934 2935 2935 2936 2937 2937 2938 2939 2939 2940 2941 2941 2942 2941 2940 2940 2940 2941 2941 2942 2942 2942 2943 2943 2942 2943 2944 2945 2946 2946 2947 2947 2947 2947 2948 2948 2948 2948 2947 2947 2947 2947 2947 2947 2947 2947 2946 2946 2946 2945 2945 2944 2944 2944 2944 2943 2943 2942 2942 2942 2942 2942 2942 2942 2943 2944 2944
2919 2920 2921 2921 2922 2923 2924 2924 2925 2926 2926 2927 2927 2928 2929 2930 2931 2931 2932 2932 2932 2933 2934 2934 2935 2935 2936 2937 2937 2938 2938 2939 2938 2937 2937 2938 2938 2939 2939 2939 2940 2940 2940 2939 2939 2940 2941 2943 2944 2944 2944 2944 2945 2945 2945 2945 2945 2944 2944 2944 2944 2944 2944 2944 2944 2944 2943 2943 2943 2942 2941 2941 2941 2941 2940 2940 2940 2939 2939 2939 2939 2939 2939 2939 2940 2941
2916 2917 2918 2918 2919 2920 2921 2921 2922 2923 2924 2924 2925 2926 2927 2927 2928 2929 2929 2929 2930 2930 2931 2932 2932 2933 2933 2934 2934 2935 2935 2936 2935 2935 2935 2935 2935 2936 2936 2937 2937 2937 2937 2936 2937 2937 2937 2939 2940 2941 2941 2941 2942 2942 2943 2942 2942 2942 2942 2941 2941 2941 2941 2941 2941 2940 2940 2940 2940 2939 2939 2939 2938 2938 2938 2937 2937 2937 2936 2936 2936 2936 2936 2936 2937 2938
2914 2914 2915 2915 2916 2917 2918 2918 2919 2920 2921 2922 2923 2924 2924 2925 2925 2926 2926 2927 2927 2928 2928 2929 2929 2930 2930 2931 2931 2932 2933 2933 2933 2933 2932 2932 2933 2933 2934 2934 2934 2934 2934 2934 2934 2934 2934 2934 2935 2936 2938 2938 2939 2939 2940 2940 2940 2939 2939 2939 2939 2939 2939 2938 2938 2937 2937 2937 2937 2937 2936 2936 2936 2935 2935 2935 2934 2934 2934 2934 2934 2933 2933 2933 2934 2934
2911 2911 2912 2913 2913 2914 2914 2915 2916 2917 2919 2919 2920 2921 2921 2922 2922 2923 2923 2924 2924 2925 2925 2926 2926 2927 2927 2928 2929 2929 2930 2931 2931 2930 2929 2929 2930 2930 2930 2931 2931 2931 2932 2931 2931 2931 2931 2931 2932 2932 2933 2934 2935 2936 2937 2937 2937 2937 2936 2936 2936 2936 2936 2936 2935 2934 2934 2934 2934 2934 2934 2933 2933 2933 2933 2932 2932 2931 2931 2931 2931 2931 2930 2931 2931 2932
2909 2909 2909 2910 2911 2911 2912 2913 2914 2915 2916 2917 2917 2918 2918 2919 2919 2919 2920 2921 2921 2922 2922 2923 2924 2924 2924 2925 2926 2927 2928 2928 2928 2928 2927 2927 2927 2927 2928 2928 2928 2928 2928 2928 2928 2928 2928 2928 2929 2929 2929 2930 2932 2933 2934 2934 2934 2934 2934 2934 2933 2933 2933 2933 2932 2932 2932 2931 2931 2931 2930 2930 2930 2930 2930 2929 2929 2929 2929 2928 2928 2928 2928 2928 2929 2929
2906 2907 2907 2908 2908 2909 2909 2910 2911 2912 2913 2914 2914 2915 2915 2915 2916 2916 2917 2918 2918 2919 2919 2920 2921 2921 2922 2922 2923 2924 2925 2925 2925 2925 2924 2924 2924 2924 2925 2925 2925 2925 2925 2925 2925 2925 2925 2925 2925 2926 2926 2927 2928 2929 2930 2930 2930 2930 2930 2930 2930 2930 2930 2930 2929 2929 2929 2929 2929 2928 2928 2927 2927 2927 2927 2926 2926 2926 2926 2926 2925 2925 2925 2925 2926 2926
2904 2904 2905 2906 2906 2907 2907 2908 2909 2909 2910 2911 2911 2912 2912 2913 2913 2914 2914 2915 2915 2916 2917 2917 2918 2918 2919 2919 2920 2921 2922 2923 2923 2923 2922 2922 2921 2922 2922 2922 2922 2922 2922 2922 2922 2922 2922 2922 2922 2923 2923 2924 2924 2924 2925 2926 2927 2927 2927 2928 2928 2927 2927 2927 2926 2926 2926 2926 2925 2925 2925 2924 2924 2924 2924 2924 2924 2923 2923 2923 2923 2923 2923 2923 2923 2923
2902 2902 2903 2903 2904 2904 2905 2905 2906 2907 2907 2908 2909 2909 2909 2910 2910 2911 2912 2912 2913 2913 2914 2914 2915 2915 2916 2917 2917 2918 2919 2920 2920 2920 2920 2919 2919 2919 2919 2919 2919 2919 2919 2919 2919 2919 2919 2919 2919 2920 2920 2920 2921 2921 2921 2922 2922 2923 2924 2924 2924 2924 2924 2924 2924 2923 2923 2923 2922 2922 2922 2921 2921 2921 2921 2921 2920 2920 2920 2920 2920 2920 2920 2920 2920 2920
2899 2900 2900 2901 2902 2902 2903 2903 2904 2904 2905 2905 2906 2907 2907 2908 2908 2909 2909 2909 2910 2911 2911 2912 2912 2913 2913 2914 2914 2915 2916 2916 2917 2917 2917 2917 2916 2916 2916 2916 2916 2916 2916 2916 2915 2915 2915 2916 2916 2916 2917 2917 2917 2918 2918 2918 2919 2919 2920 2920 2921 2922 2922 2921 2921 2920 2920 2919 2919 2919 2919 2918 2918 2918 2918 2918 2918 2918 2918 2918 2917 2917 2917 2917 2917 2918
2897 2898 2898 2899 2899 2899 2900 2900 2901 2902 2902 2903 2904 2904 2905 2905 2906 2906 2906 2907 2907 2908 2908 2909 2909 2910 2910 2911 2912 2912 2913 2913 2914 2914 2914 2914 2914 2913 2913 2913 2913 2913 2913 2913 2913 2913 2913 2913 2913 2913 2914 2914 2914 2914 2915 2915 2915 2915 2916 2916 2917 2918 2919 2918 2918 2917 2917 2916 2916 2916 2915 2915 2915 2914 2914 2914 2914 2914 2915 2915 2915 2915 2914 2914 2914 2914
2895 2895 2896 2896 2897 2897 2898 2898 2899 2899 2900 2900 2901 2901 2902 2903 2903 2903 2904 2904 2904 2905 2905 2906 2906 2907 2908 2908 2909 2909 2909 2910 2910 2910 2911 2911 2910 2910 2910 2910 2910 2910 2910 2910 2910 2910 2910 2910 2910 2910 2910 2910 2911 2911 2911 2912 2912 2912 2912 2912 2913 2914 2914 2914 2914 2914 2914 2914 2913 2913 2912 2912 2912 2912 2912 2911 2912 2912 2912 2912 2912 2912 2912 2912 2912 2912
2892 2893 2893 2894 2894 2894 2895 2895 2896 2896 2897 2898 2898 2899 2899 2900 2900 2901 2901 2901 2902 2902 2902 2903 2903 2904 2904 2905 2905 2906 2906 2907 2907 2907 2907 2907 2907 2907 2907 2907 2907 2907 2907 2907 2907 2907 2907 2907 2907 2907 2907 2907 2908 2908 2908 2909 2909 2909 2909 2909 2909 2909 2910 2911 2911 2911 2910 2911 2911 2910 2910 2909 2909 2909 2909 2909 2909 2909 2909 2909 2909 2910 2910 2909 2909 2909
2889 2890 2890 2891 2891 2892 2892 2893 2893 2894 2894 2895 2895 2896 2896 2897 2897 2898 2898 2899 2899 2899 2899 2900 2900 2901 2901 2902 2903 2903 2903 2903 2904 2904 2904 2904 2904 2904 2904 2904 2904 2904 2904 2904 2904 2904 2904 2904 2904 2904 2904 2904 2904 2905 2905 2906 2906 2906 2906 2905 2905 2905 2905 2906 2907 2908 2907 2908 2908 2907 2907 2906 2906 2906 2906 2906 2906 2907 2907 2907 2907 2907 2907 2907 2907 2907
2887 2887 2888 2888 2889 2889 2889 2890 2890 2891 2892 2892 2892 2893 2894 2894 2894 2895 2895 2896 2896 2896 2897 2897 2897 2898 2899 2899 2900 2900 2900 2900 2900 2901 2901 2901 2901 2901 2901 2901 2901 2900 2901 2900 2900 2901 2901 2901 2901 2901 2901 2901 2901 2902 2902 2903 2903 2903 2903 2902 2902 2901 2902 2902 2903 2903 2904 2904 2904 2904 2904 2903 2903 2903 2903 2903 2904 2904 2904 2904 2904 2904 2905 2904 2904 2904
2884 2884 2885 2885 2886 2886 2886 2887 2887 2888 2888 2889 2889 2890 2890 2891 2891 2892 2892 2893 2893 2894 2894 2894 2894 2895 2896 2896 2897 2897 2898 2898 2898 2898 2898 2898 2898 2898 2898 2898 2898 2898 2897 2898 2898 2898 2898 2898 2898 2899 2899 2899 2899 2899 2899 2899 2899 2899 2899 2899 2898 2898 2898 2899 2899 2899 2899 2900 2900 2900 2900 2900 2900 2900 2900 2901 2901 2901 2901 2902 2902 2902 2902 2902 2902 2902
2881 2882 2882 2882 2883 2883 2884 2884 2884 2885 2885 2886 2886 2887 2887 2888 2888 2889 2889 2889 2890 2890 2891 2891 2892 2892 2893 2893 2894 2894 2895 2895 2895 2895 2895 2895 2895 2895 2894 2894 2894 2894 2894 2894 2894 2894 2895 2895 2895 2895 2895 2895 2896 2896 2896 2896 2896 2896 2896 2895 2895 2895 2895 2895 2896 2896 2896 2896 2896 2897 2897 2897 2897 2897 2897 2897 2898 2898 2899 2899 2899 2899 2899 2899 2899 2899
2879 2879 2879 2879 2880 2880 2880 2881 2881 2882 2882 2883 2883 2884 2884 2884 2885 2885 2886 2886 2887 2887 2888 2888 2889 2889 2889 2890 2891 2891 2892 2892 2892 2893 2893 2892 2892 2892 2892 2891 2891 2891 2891 2891 2891 2892 2892 2892 2892 2892 2892 2892 2893 2893 2894 2894 2893 2892 2892 2892 2891 2891 2892 2892 2892 2892 2892 2892 2893 2893 2893 2893 2893 2894 2894 2894 2894 2895 2896 2896 2897 2897 2897 2897 2897 2897
2876 2876 2876 2877 2877 2877 2878 2878 2878 2879 2879 2880 2880 2881 2881 2881 2882 2882 2883 2883 2884 2884 2884 2885 2885 2886 2886 2887 2888 2888 2889 2889 2889 2890 2890 2890 2889 2889 2889 2889 2889 2888 2888 2888 2888 2889 2889 2889 2889 2889 2889 2889 2889 2890 2890 2890 2890 2889 2889 2888 2888 2888 2888 2889 2889 2889 2889 2889 2889 2889 2890 2890 2890 2890 2890 2890 2891 2892 2893 2894 2894 2894 2894 2894 2894 2894
2873 2873 2873 2874 2874 2874 2874 2875 2875 2875 2876 2876 2877 2878 2878 2878 2879 2879 2879 2879 2880 2881 2881 2882 2882 2883 2883 2884 2884 2884 2885 2885 2886 2886 2887 2887 2887 2887 2886 2886 2886 2885 2885 2885 2885 2885 2885 2886 2886 2886 2886 2886 2886 2886 2887 2887 2886 2886 2885 2885 2885 2884 2884 2884 2885 2885 2885 2885 2886 2886 2887 2887 2887 2887 2887 2887 2887 2888 2889 2890 2891 2891 2891 2891 2891 2891
2869 2869 2870 2870 2871 2871 2871 2872 2872 2872 2873 2873 2874 2874 2875 2875 2875 2876 2876 2876 2877 2877 2878 2878 2879 2879 2880 2880 2880 2881 2881 2882 2882 2883 2883 2884 2884 2884 2883 2883 2883 2883 2883 2882 2882 2882 2882 2883 2883 2883 2884 2884 2883 2883 2883 2883 2883 2882 2882 2882 2882 2881 2881 2881 2881 2882 2882 2882 2883 2883 2884 2884 2884 2884 2883 2883 2883 2884 2884 2886 2887 2888 2888 2888 2888 2888
2866 2866 2867 2867 2867 2868 2868 2869 2869 2869 2869 2870 2870 2871 2871 2872 2872 2873 2873 2873 2874 2874 2874 2874 2875 2875 2876 2877 2877 2877 2878 2878 2879 2879 2879 2880 2880 2880 2880 2880 2879 2879 2879 2879 2879 2879 2879 2879 2880 2880 2881 2881 2880 2879 2879 2879 2879 2879 2879 2879 2878 2878 2878 2878 2878 2878 2878 2879 2879 2879 2880 2880 2880 2880 2880 2879 2879 2879 2880 2881 2883 2884 2884 2884 2885 2885